This demonstration page uses our WeatherBlox Daily Observations layout. Learn more.

Left ArrowRight Arrow

36.17497, -115.13722

Hourly Observations for October 29, 2019

Temp ( °F °C ) Dew Point ( °F °C ) Humidity (%) Winds ( mph kmh ) Pressure ( in mb ) Visibility ( mi km ) Precip ( " mm )
12:53 am 00:53 Clear 43 6.1 14 -10 31 31 N N/A 29.96 1015 10 16.0934 N/A
1:53 am 01:53 Clear 43 6.1 12 -11.1 28 28 W 3 6 29.96 1015 10 16.0934 N/A
2:53 am 02:53 Clear 41 5 13 -10.6 32 32 WSW 3 6 29.93 1014 10 16.0934 N/A
3:53 am 03:53 Clear 43 6.1 12 -11.1 28 28 WNW 3 6 29.91 1013 10 16.0934 N/A
4:53 am 04:53 Clear 40 4.4 12 -11.1 32 32 WNW 5 7 29.89 1012 10 16.0934 N/A
5:53 am 05:53 Clear 39 3.9 11 -11.7 31 31 N N/A 29.89 1012 10 16.0934 N/A
6:53 am 06:53 Clear 39 3.9 8 -13.3 28 28 N N/A 29.9 1013 10 16.0934 N/A
7:53 am 07:53 Sunny 41 5 4 -15.6 21 21 WNW 3 6 29.93 1013 10 16.0934 N/A
8:53 am 08:53 Sunny 48 8.9 N/A 13 13 N N/A 29.93 1014 10 16.0934 N/A
9:53 am 09:53 Sunny 50 10 N/A 12 12 E 3 6 29.93 1014 10 16.0934 N/A
10:53 am 10:53 Sunny 53 11.7 N/A 11 11 E 5 7 29.93 1014 10 16.0934 N/A
11:53 am 11:53 Sunny 56 13.3 1 -17.2 10 10 ENE 8 13 29.92 1013 10 16.0934 N/A
12:53 pm 12:53 Sunny 58 14.4 N/A 9 9 ENE 8 13 29.91 1013 10 16.0934 N/A
1:53 pm 13:53 Sunny 60 15.6 N/A 9 9 E 6 9 29.89 1012 10 16.0934 N/A
2:53 pm 14:53 Sunny 61 16.1 2 -16.7 9 9 ESE 7 11 29.89 1012 10 16.0934 N/A
3:53 pm 15:53 Sunny 62 16.7 3 -16.1 9 9 E 7 11 29.91 1013 10 16.0934 N/A
4:53 pm 16:53 Sunny 63 17.2 1 -17.2 8 8 E 7 11 29.93 1013 10 16.0934 N/A
5:53 pm 17:53 Clear 61 16.1 1 -17.2 9 9 ENE 12 19 29.96 1015 10 16.0934 N/A
6:53 pm 18:53 Clear 58 14.4 5 -15 12 12 NNE 12 19 30.01 1016 10 16.0934 N/A
7:53 pm 19:53 Clear 56 13.3 4 -15.6 12 12 N 9 15 30.07 1018 10 16.0934 N/A
8:53 pm 20:53 Clear 52 11.1 1 -17.2 12 12 NW 32 52 30.12 1020 10 16.0934 0.001 0.001
9:42 pm 21:42 Clear 49 9.4 -7 -21.7 9 9 N 13 20 30.17 1022 10 16.0934 N/A
9:53 pm 21:53 Clear 49 9.4 -8 -22.2 9 9 N 17 28 30.22 1024 10 16.0934 N/A
10:53 pm 22:53 Clear 47 8.3 -12 -24.4 8 8 N 18 30 30.26 1025 10 16.0934 N/A
11:53 pm 23:53 Clear 44 6.7 -8 -22.2 11 11 NE 9 15 30.32 1027 10 16.0934 0.001 0.001

Powered by AerisWeather